Powrót do katalogu

STARLINK-37629

AktywnyŁącznośćVLEO
NORAD 69443·PAYLOAD·🇺🇸 United States

Wystrzelony Jun 8, 2026 z Cape Canaveral Space Force Station

Loading…

Następne Przeloty (najbliższe 24 godziny)

TLE

ŚwieżeSource: CelesTrak SupGP

Epoka: Sep 15, 2026, 04:16 UTC

1 69443C 26127A   26258.17826389 -.00044147  00000+0 -13046-2 0  2586
2 69443  53.1571 190.6276 0001279  90.0742 307.5831 15.34406997    18

Śledź STARLINK-37629 w czasie rzeczywistym z AllMySat

Download on the App Store